{"data":{"norad_id":44536,"epoch":"2026-05-25T04:28:38.314848Z","epoch_age_seconds":58108,"freshness":"FRESH","line1":"1 44536U 19060C   26145.18655457  .00028304  00000+0  45963-3 0  9993","line2":"2 44536  97.5506 301.7391 0008944  47.9964 312.2048 15.52649514372750","mean_motion":15.52649514,"eccentricity":0.0008944,"inclination_deg":97.5506,"raan_deg":301.7391,"arg_perigee_deg":47.9964,"mean_anomaly_deg":312.2048,"bstar":0.00045963,"rev_number":37275,"period_min":92.74469138178,"perigee_km":402.92341042969,"apogee_km":415.06423004093,"semimajor_km":6787.1308202353,"source":"CELESTRAK","updated_at":"2026-05-25T13:37:56.000950Z"}}